SCP
2 2 2 2 2 2 1 1 1 1 1 1 1 1 1 1 1 2 2 2 2 2 2 1 1 1 1 1 1 1 2 1 1 1 1 1 1 1 1 1 0 0 0
2 2 2 2 2 2 1 1 1 1 1 1 1 1 1 1 1 1 2 2 2 2 2 1 1 1 1 1 1 2 2 1 1 1 1 1 1 1 1 1 0 0 1
2 2 2 2 2 2 1 1 1 1 1 1 1 1 1 1 1 1 1 1 2 2 2 1 1 1 1 1 2 2 1 1 1 1 1 1 1 1 1 1 1 1 1
1 2 2 2 2 2 1 1 1 1 1 1 1 1 1 1 1 1 1 1 1 2 2 2 2 2 2 2 1 1 1 1 1 1 1 1 1 1 1 1 1 1 1
2 2 2 2 2 2 1 1 1 1 1 1 1 1 1 1 1 1 1 1 1 2 2 2 2 2 2 2 1 1 1 1 1 1 1 1 1 1 1 1 1 1 1
3 3 2 2 2 2 1 1 1 1 1 1 1 1 1 1 1 1 1 1 1 1 2 2 2 2 2 2 1 1 1 1 1 1 1 1 1 0 1 1 1 1 1
3 3 2 2 2 2 2 1 1 1 1 1 1 1 1 1 1 1 1 1 1 1 1 2 2 2 2 2 1 1 1 1 1 1 1 1 1 1 0 0 0 0 0
4 3 3 2 3 3 2 2 1 1 1 1 1 1 1 1 1 1 1 1 1 1 1 1 2 2 2 2 2 1 1 1 1 1 1 1 1 1 1 0 0 1 1
4 4 3 3 3 3 3 2 2 1 1 1 1 1 1 1 1 1 1 1 1 1 1 1 1 2 2 2 2 1 1 1 1 1 1 1 1 1 1 1 1 1 1
3 3 3 3 3 4 3 3 2 2 2 1 1 1 1 1 1 1 1 1 1 1 1 1 1 2 2 2 2 1 1 1 1 1 1 1 1 1 1 1 1 1 1
3 3 3 3 3 3 3 3 3 2 2 2 2 1 1 1 1 1 1 1 1 1 1 1 1 2 2 2 1 1 1 1 1 1 1 1 1 1 1 1 1 1 1
4 3 3 3 3 3 3 4 3 3 3 2 2 2 1 1 1 1 1 1 1 1 1 1 1 1 2 1 1 1 1 1 1 1 1 2 2 2 1 1 1 1 1
4 4 3 3 4 4 4 3 3 4 4 3 3 2 2 2 2 2 2 2 1 1 1 1 1 1 1 1 1 1 1 1 0 1 2 3 4 3 2 2 1 1 1
4 4 4 4 5 5 5 4 4 5 6 5 5 5 4 3 3 3 2 2 2 1 1 1 1 1 1 1 1 1 1 1 1 1 2 4 5 4 3 2 2 1 1
6 6 6 6 7 7 6 5 5 6 7 7 8 8 7 5 4 4 3 3 2 1 2 2 2 1 1 1 1 1 1 1 1 1 2 4 4 4 3 3 2 2 2
9 9 10 9 8 8 7 6 5 6 7 8 9 8 7 6 5 5 4 3 2 2 2 2 2 2 1 1 1 1 1 1 1 2 2 3 4 4 3 3 3 3 3
9 11 12 10 8 7 7 6 5 5 5 7 7 7 6 6 6 6 5 4 3 2 2 2 2 2 2 1 1 1 1 1 1 2 2 3 3 3 3 4 4 4 4
9 10 10 8 7 7 7 6 5 4 4 4 5 5 5 5 5 5 4 3 3 2 3 3 2 2 2 2 1 1 1 1 1 2 2 3 3 3 3 4 4 4 4
11 11 10 8 8 8 7 6 5 4 4 4 4 5 5 5 4 5 4 3 3 3 3 3 3 2 2 2 2 1 1 1 2 2 3 3 3 3 3 3 4 4 4
13 14 13 11 10 10 9 7 6 5 5 5 6 6 7 6 5 5 5 4 3 3 3 3 3 3 3 3 2 1 1 2 2 3 4 4 4 4 3 4 4 4 4
15 16 16 14 12 12 11 8 7 7 7 7 7 9 10 9 7 6 5 5 4 4 4 4 4 4 4 4 4 3 2 2 3 5 6 6 5 4 3 4 5 5 4
15 16 16 15 14 14 12 10 8 8 8 9 10 12 13 13 11 9 7 7 6 6 6 7 7 6 6 6 6 5 5 4 4 6 7 7 6 5 4 5 6 6 5
12 12 11 13 16 17 15 12 10 9 9 10 12 14 16 16 15 13 11 10 9 8 8 9 9 9 8 7 7 7 7 6 6 6 6 7 7 8 7 6 6 6 5
9 9 9 11 16 20 19 15 12 11 10 11 13 16 18 19 18 16 14 12 11 10 10 10 10 10 9 8 7 7 7 8 8 7 6 6 7 9 9 8 6 5 5
7 8 9 11 15 18 18 16 15 13 12 12 13 15 18 19 19 17 15 14 12 11 11 12 11 11 10 8 7 7 7 8 9 8 6 5 6 7 7 7 5 5 4
7 8 9 12 15 15 14 14 15 14 14 13 12 12 14 18 19 17 15 14 12 11 12 13 13 12 10 8 7 7 7 8 8 8 6 5 5 5 5 5 5 4 4
Wind_Speed
14 14 14 12 11 10 9 9 9 8 8 9 9 10 10 9 9 9 9 10 10 10 10 10 9 10 10 10 10 10 10 10 10 11 12 12 11 10 9 9 9 8 10
17 15 15 12 11 10 9 9 9 8 9 9 9 9 9 9 10 10 9 9 9 10 10 9 9 9 9 9 9 9 9 9 9 10 11 10 10 10 10 9 9 7 9
16 15 14 12 11 10 9 9 9 9 9 9 8 9 9 9 9 9 10 9 9 9 9 8 9 9 9 8 8 8 8 8 8 9 9 7 8 10 10 10 10 9 9
16 14 12 13 11 10 10 10 9 9 9 8 8 8 9 9 9 9 9 9 9 8 8 8 8 8 8 7 7 6 6 5 6 7 4 5 6 10 10 9 8 8 8
16 14 14 13 11 11 10 10 9 9 8 8 8 8 8 8 8 8 8 9 9 8 8 7 7 7 7 6 5 4 3 3 3 3 4 6 6 9 9 8 7 7 7
16 16 14 14 12 11 11 10 9 9 8 8 8 8 8 8 8 7 7 8 8 8 7 7 7 6 6 5 4 3 2 2 2 2 4 7 6 8 8 8 7 6 6
16 15 14 14 13 12 11 10 9 8 8 7 8 8 8 7 7 6 6 7 7 7 7 7 6 6 5 4 3 1 1 1 1 2 5 7 7 9 8 7 7 7 6
15 15 13 14 13 12 11 10 9 8 7 7 7 7 7 7 6 6 6 6 7 7 6 6 6 5 4 3 2 1 2 2 2 3 5 7 9 10 9 8 7 6 6
14 14 11 12 12 12 11 10 9 8 7 7 7 7 7 7 6 6 6 6 6 6 6 6 6 5 4 2 1 1 2 1 1 2 5 6 9 10 9 8 7 6 5
12 11 10 10 10 10 10 10 9 8 8 7 7 6 6 7 6 6 6 5 5 5 5 5 5 4 3 3 2 2 2 2 1 4 4 6 10 10 9 8 7 5 4
9 9 8 9 9 9 9 9 9 8 7 7 6 6 6 5 5 5 5 7 6 6 5 5 5 5 4 4 4 3 3 1 3 3 5 9 9 9 8 8 7 6 4
9 9 7 8 7 7 7 7 6 5 5 4 4 5 4 2 3 5 7 7 7 6 5 6 5 5 4 3 4 4 1 2 3 3 5 10 9 9 8 7 7 6 5
9 7 8 7 6 6 5 5 3 3 4 3 3 3 3 3 3 3 3 4 4 5 3 4 4 3 2 2 2 3 2 2 2 3 6 9 8 8 8 7 6 5 5
9 7 7 7 5 5 5 4 3 3 3 3 3 3 2 1 2 2 2 3 3 2 2 2 2 2 2 1 2 2 3 2 3 3 5 9 9 8 7 7 6 5 5
9 8 7 7 6 4 4 2 3 2 3 3 3 2 1 2 1 2 1 1 1 1 2 1 1 2 1 0 1 2 2 3 4 4 4 9 9 9 8 7 7 6 5
9 8 7 7 6 4 3 1 2 2 2 3 3 3 1 1 2 2 2 2 1 1 2 2 2 2 1 1 1 1 2 3 4 4 4 6 9 9 8 7 7 6 5
8 7 7 7 7 5 4 2 2 2 2 2 3 3 2 2 2 2 2 2 1 1 2 2 2 2 2 1 1 1 1 2 3 3 4 4 5 7 8 7 7 6 6
9 8 7 7 7 5 4 2 2 2 2 2 2 3 3 3 2 2 2 2 1 1 2 2 2 1 1 1 1 1 1 2 2 3 3 4 3 4 6 8 7 7 6
8 8 7 6 7 6 5 3 2 2 2 2 2 2 3 3 2 1 2 1 1 1 1 1 2 1 1 1 0 1 1 1 2 2 3 3 3 3 3 6 8 8 7
8 8 7 6 6 6 4 3 2 2 2 1 2 2 3 3 2 1 2 1 1 1 1 1 2 1 1 1 1 1 1 1 1 1 2 2 2 4 4 4 4 5 7
8 8 8 6 6 5 4 3 3 3 2 2 2 2 3 3 3 1 1 2 1 1 1 1 1 0 0 0 1 0 1 2 2 2 1 1 2 2 3 4 3 3 4
9 8 8 7 7 5 3 3 3 3 2 2 2 2 3 3 2 3 2 1 1 1 1 1 1 1 1 1 1 1 1 0 0 2 2 3 3 2 2 4 3 3 3
9 9 7 6 7 6 5 4 3 3 2 2 2 3 3 3 3 2 2 1 2 1 1 1 1 2 1 1 0 1 1 1 0 0 2 1 1 1 1 2 3 3 4
9 8 7 7 6 6 5 5 5 4 3 3 2 2 2 3 3 3 2 2 1 1 1 2 1 1 1 1 1 1 1 1 1 0 1 1 1 1 1 1 1 2 3
9 8 7 7 6 6 5 5 4 4 3 2 3 3 3 2 2 3 2 2 2 1 2 2 1 1 1 1 1 1 1 1 2 1 1 1 1 1 1 1 1 1 2
8 8 8 7 6 5 5 4 4 4 3 3 3 3 3 2 2 2 2 2 2 2 2 2 2 2 2 2 1 1 1 1 1 1 2 2 2 1 1 1 2 2 2
Wind_Direction
106 113 116 111 107 104 104 104 103 101 96 91 86 83 81 79 79 81 89 93 98 101 101 101 100 103 100 99 99 98 102 108 108 112 114 113 112 110 115 115 115 104 107
111 116 117 113 109 108 108 107 106 105 100 95 90 87 85 84 83 83 88 96 101 104 103 101 102 106 104 103 104 105 111 117 119 121 122 119 116 114 108 101 101 108 111
113 120 118 114 111 110 109 108 109 108 104 100 95 91 88 86 86 86 88 91 97 102 103 102 104 104 103 102 105 112 121 131 135 137 135 122 117 114 110 108 107 110 110
118 122 118 117 114 114 112 112 113 110 109 104 98 95 92 88 88 87 87 90 93 101 107 107 106 106 105 106 113 122 132 147 154 150 137 119 113 113 115 117 116 114 113
118 117 118 120 116 116 115 113 114 112 110 108 103 101 98 94 91 90 88 91 91 95 105 112 113 111 111 113 121 130 143 171 172 153 126 109 102 114 118 121 122 117 119
117 118 123 124 121 118 117 116 114 113 113 111 109 108 104 98 93 92 93 96 95 94 99 109 115 117 117 120 130 143 173 220 194 148 115 110 109 117 124 126 127 123 126
115 118 127 129 127 125 124 122 120 118 118 114 112 112 108 104 99 97 99 100 100 101 101 105 113 119 122 124 130 164 217 243 177 106 111 108 114 123 125 124 127 127 131
115 117 128 134 134 133 131 129 127 124 122 120 119 119 119 118 114 110 110 106 106 106 103 109 121 119 125 128 151 222 276 277 107 112 109 109 123 125 124 121 121 122 129
114 121 132 137 141 141 137 135 135 134 132 130 132 133 135 136 136 129 122 119 119 120 117 115 122 121 133 139 177 292 304 351 7 78 103 109 123 126 125 125 124 123 122
115 122 136 140 142 146 145 144 144 143 142 141 140 146 153 153 153 148 138 134 134 134 133 134 139 145 153 167 217 267 279 301 103 84 92 108 121 124 125 127 128 125 126
120 126 137 138 145 150 145 144 149 149 153 154 155 163 171 172 167 167 145 150 153 156 158 159 160 167 178 194 216 246 260 214 104 93 99 113 123 124 126 130 131 127 133
136 138 140 138 142 142 137 139 152 158 156 169 158 171 186 176 168 152 147 162 168 175 180 185 187 193 207 205 200 210 210 152 116 106 112 123 127 128 129 131 131 135 141
141 140 138 137 134 133 128 140 150 153 150 166 155 174 173 160 157 141 154 164 185 190 198 190 196 206 191 189 168 164 161 133 116 111 118 130 132 134 135 134 137 144 144
143 142 135 128 125 125 124 136 143 141 149 152 153 183 166 172 161 141 157 164 185 185 179 180 174 155 158 185 158 154 150 136 118 116 131 139 138 141 143 144 144 150 150
145 141 133 127 123 113 109 136 136 137 149 137 146 153 155 167 149 129 118 114 153 146 155 165 138 117 130 137 123 125 126 121 120 126 134 144 146 148 150 153 151 149 150
143 144 139 132 124 121 122 138 134 141 128 139 138 130 137 118 111 114 113 115 126 114 119 130 120 117 117 104 96 107 124 130 130 137 144 149 155 157 156 155 156 156 159
141 134 137 141 135 141 148 166 137 135 145 135 118 126 138 115 115 125 119 114 102 118 122 113 116 130 139 143 149 124 119 130 139 147 150 152 157 165 167 168 167 166 169
143 141 152 156 146 149 151 161 138 146 132 118 119 122 128 120 130 133 113 112 142 119 109 124 130 121 113 127 136 139 131 137 158 164 162 163 163 164 176 179 177 177 178
144 146 150 144 148 154 150 150 144 118 106 113 118 121 133 139 141 136 116 127 155 127 120 143 120 115 119 121 156 149 138 165 173 165 148 155 165 165 164 173 181 183 183
145 145 146 144 143 145 143 144 145 141 128 121 111 116 139 151 153 160 137 149 154 121 103 86 93 115 162 189 206 136 162 189 174 160 172 166 173 171 172 174 174 186 190
143 145 147 152 146 147 151 162 163 163 157 145 134 139 149 152 149 171 144 153 173 124 116 122 112 152 189 153 106 72 189 178 157 179 159 151 192 186 169 166 171 173 175
145 148 153 151 152 162 160 165 170 161 160 150 139 143 152 150 155 177 172 173 151 127 142 159 163 178 218 187 175 191 200 163 205 179 160 182 191 193 182 175 167 165 161
152 153 157 155 157 169 162 163 159 147 147 146 152 157 163 158 159 171 176 187 150 150 153 176 191 195 222 228 209 219 209 187 234 213 191 174 162 187 190 168 166 167 173
158 156 149 148 155 165 167 174 168 168 174 172 163 154 158 164 168 172 183 182 168 167 160 205 199 233 221 239 249 238 266 100 184 225 268 204 182 182 194 184 137 150 162
155 154 150 146 152 164 175 178 176 175 171 154 151 151 158 166 169 170 172 176 190 183 185 216 190 222 238 245 249 259 258 234 216 198 227 247 260 201 176 186 173 167 168
152 152 149 149 152 159 175 174 181 179 168 157 150 152 169 171 172 175 180 175 191 191 196 201 189 214 245 266 265 260 249 247 236 222 218 222 232 238 203 191 190 186 185